| time (UTC) | temp F | wind direction | speed MPH | gust MPH | rain 1hr in | rain 24hr in | rain mn in | humidity % | barometer mb |
| 20260902005552 | 72 | 21 | 2.0 | 9.0 | 0.00 | 0.12 | 0.09 | 57 | 1024.4 |
| 20260902005052 | 73 | 23 | 2.0 | 9.0 | 0.00 | 0.13 | 0.09 | 57 | 1024.2 |
| 20260902004552 | 73 | 17 | 3.0 | 7.0 | 0.00 | 0.13 | 0.09 | 57 | 1024.2 |
| 20260902004052 | 73 | 18 | 3.0 | 9.0 | 0.00 | 0.13 | 0.09 | 57 | 1024.2 |
| 20260902003551 | 73 | 23 | 2.0 | 9.0 | 0.00 | 0.13 | 0.09 | 57 | 1024.4 |
| 20260902003051 | 73 | 39 | 1.0 | 6.0 | 0.00 | 0.13 | 0.09 | 58 | 1024.4 |
| 20260902002812 | 73 | 41 | 2.0 | 7.0 | 0.00 | 0.13 | 0.09 | 57 | 1024.2 |
| 20260902002052 | 74 | 41 | 4.0 | 7.0 | 0.00 | 0.13 | 0.09 | 56 | 1024.2 |
| 20260902001551 | 74 | 38 | 5.0 | 7.0 | 0.00 | 0.13 | 0.09 | 55 | 1024.2 |
| 20260902001051 | 74 | 51 | 3.0 | 6.0 | 0.00 | 0.13 | 0.09 | 56 | 1024.4 |
| 20260902000811 | 74 | 49 | 3.0 | 7.0 | 0.00 | 0.13 | 0.09 | 56 | 1024.2 |
| 20260902000052 | 75 | 47 | 3.0 | 7.0 | 0.00 | 0.13 | 0.09 | 56 | 1024.2 |
| 20260901235811 | 75 | 47 | 4.0 | 7.0 | 0.00 | 0.13 | 0.09 | 54 | 1024.2 |
| 20260901235051 | 76 | 30 | 4.0 | 9.0 | 0.00 | 0.13 | 0.09 | 53 | 1024.2 |
| 20260901234552 | 77 | 45 | 4.0 | 9.0 | 0.00 | 0.13 | 0.09 | 52 | 1024.2 |
| 20260901234051 | 77 | 32 | 4.0 | 10.0 | 0.00 | 0.13 | 0.09 | 51 | 1024.1 |
| 20260901234034 | 78 | 47 | 5.0 | 10.0 | 0.00 | 0.13 | 0.09 | 49 | 1024.1 |
| 20260901233052 | 79 | 54 | 3.0 | 11.0 | 0.00 | 0.13 | 0.09 | 49 | 1024.1 |
| 20260901232551 | 80 | 34 | 4.0 | 11.0 | 0.00 | 0.13 | 0.09 | 47 | 1024.0 |
| 20260901232534 | 81 | 62 | 7.0 | 11.0 | 0.00 | 0.13 | 0.09 | 46 | 1024.1 |
| 20260901231552 | 82 | 20 | 4.0 | 7.0 | 0.00 | 0.13 | 0.09 | 46 | 1024.0 |
| 20260901231052 | 82 | 14 | 4.0 | 7.0 | 0.00 | 0.13 | 0.09 | 44 | 1024.0 |
| 20260901230552 | 83 | 23 | 3.0 | 7.0 | 0.00 | 0.13 | 0.09 | 44 | 1024.2 |
| 20260901230052 | 83 | 54 | 2.0 | 7.0 | 0.00 | 0.13 | 0.09 | 43 | 1024.2 |
| 20260901225551 | 83 | 7 | 4.0 | 7.0 | 0.00 | 0.13 | 0.09 | 44 | 1024.2 |
| 20260901225052 | 82 | 178 | 2.0 | 6.0 | 0.00 | 0.13 | 0.09 | 37 | 1024.2 |
| 20260901224551 | 82 | 183 | 0.0 | 6.0 | 0.00 | 0.13 | 0.09 | 37 | 1024.1 |
| 20260901224051 | 82 | 189 | 4.0 | 10.0 | 0.00 | 0.13 | 0.09 | 39 | 1024.2 |
| 20260901223552 | 82 | 188 | 3.0 | 10.0 | 0.00 | 0.13 | 0.09 | 40 | 1024.2 |
| 20260901223051 | 82 | 145 | 2.0 | 7.0 | 0.00 | 0.13 | 0.09 | 40 | 1024.2 |
| 20260901222551 | 82 | 125 | 4.0 | 7.0 | 0.00 | 0.13 | 0.09 | 41 | 1024.2 |
| 20260901222052 | 81 | 207 | 2.0 | 7.0 | 0.00 | 0.13 | 0.09 | 40 | 1024.2 |
| 20260901221551 | 80 | 152 | 2.0 | 13.0 | 0.00 | 0.13 | 0.09 | 42 | 1024.4 |
| 20260901221051 | 81 | 159 | 5.0 | 13.0 | 0.00 | 0.13 | 0.09 | 40 | 1024.4 |
| 20260901220552 | 81 | 148 | 4.0 | 9.0 | 0.00 | 0.13 | 0.09 | 40 | 1024.5 |
| 20260901220051 | 80 | 155 | 2.0 | 13.0 | 0.00 | 0.13 | 0.09 | 41 | 1024.5 |
| 20260901215551 | 80 | 212 | 5.0 | 13.0 | 0.00 | 0.13 | 0.09 | 43 | 1024.5 |
| 20260901215051 | 80 | 190 | 5.0 | 12.0 | 0.00 | 0.13 | 0.09 | 43 | 1024.6 |
| 20260901214551 | 81 | 149 | 4.0 | 15.0 | 0.00 | 0.13 | 0.09 | 41 | 1024.6 |
| 20260901214052 | 82 | 147 | 6.0 | 15.0 | 0.00 | 0.13 | 0.09 | 41 | 1024.6 |
| 20260901213552 | 82 | 154 | 7.0 | 14.0 | 0.00 | 0.13 | 0.09 | 41 | 1024.7 |
| 20260901213052 | 83 | 151 | 6.0 | 12.0 | 0.00 | 0.13 | 0.09 | 40 | 1024.9 |
| 20260901212552 | 82 | 186 | 4.0 | 9.0 | 0.00 | 0.13 | 0.09 | 41 | 1025.0 |
| 20260901212318 | 82 | 199 | 4.0 | 9.0 | 0.00 | 0.13 | 0.09 | 42 | 1025.0 |
| 20260901211817 | 81 | 152 | 5.0 | 9.0 | 0.00 | 0.13 | 0.09 | 40 | 1025.1 |
| 20260901211051 | 81 | 219 | 4.0 | 11.0 | 0.00 | 0.13 | 0.09 | 41 | 1025.2 |
| 20260901210551 | 81 | 192 | 3.0 | 11.0 | 0.00 | 0.13 | 0.09 | 41 | 1025.2 |
| 20260901210052 | 81 | 151 | 4.0 | 12.0 | 0.00 | 0.13 | 0.09 | 45 | 1025.3 |
| 20260901205551 | 80 | 237 | 4.0 | 12.0 | 0.00 | 0.13 | 0.09 | 45 | 1025.6 |
| 20260901205051 | 80 | 305 | 4.0 | 12.0 | 0.00 | 0.13 | 0.09 | 45 | 1025.7 |
| 20260901204550 | 79 | 171 | 4.0 | 10.0 | 0.00 | 0.13 | 0.09 | 47 | 1025.7 |
| 20260901204051 | 78 | 216 | 5.0 | 11.0 | 0.00 | 0.13 | 0.09 | 51 | 1025.7 |
| 20260901203818 | 78 | 190 | 4.0 | 13.0 | 0.00 | 0.13 | 0.09 | 49 | 1025.7 |
| 20260901203051 | 77 | 173 | 6.0 | 13.0 | 0.00 | 0.13 | 0.09 | 49 | 1025.7 |
| 20260901202810 | 77 | 186 | 3.0 | 11.0 | 0.00 | 0.13 | 0.09 | 49 | 1025.8 |
| 20260901202051 | 77 | 213 | 4.0 | 11.0 | 0.00 | 0.13 | 0.09 | 48 | 1025.8 |
| 20260901201551 | 78 | 212 | 5.0 | 13.0 | 0.00 | 0.13 | 0.09 | 50 | 1025.8 |
| 20260901201050 | 78 | 182 | 6.0 | 13.0 | 0.00 | 0.13 | 0.09 | 48 | 1025.9 |
| 20260901200551 | 79 | 204 | 6.0 | 11.0 | 0.00 | 0.13 | 0.09 | 48 | 1025.9 |
| 20260901200051 | 79 | 135 | 6.0 | 14.0 | 0.00 | 0.13 | 0.09 | 46 | 1025.9 |
| 20260901195551 | 79 | 219 | 4.0 | 14.0 | 0.00 | 0.13 | 0.09 | 48 | 1025.9 |
| 20260901195051 | 79 | 190 | 6.0 | 12.0 | 0.00 | 0.13 | 0.09 | 47 | 1025.9 |
| 20260901194816 | 79 | 151 | 5.0 | 12.0 | 0.00 | 0.13 | 0.09 | 47 | 1025.9 |
| 20260901194051 | 79 | 183 | 6.0 | 12.0 | 0.00 | 0.13 | 0.09 | 46 | 1026.1 |
| 20260901193551 | 79 | 183 | 4.0 | 12.0 | 0.00 | 0.13 | 0.09 | 46 | 1026.2 |
| 20260901193050 | 80 | 157 | 7.0 | 12.0 | 0.00 | 0.13 | 0.09 | 43 | 1026.1 |
| 20260901192551 | 79 | 155 | 4.0 | 11.0 | 0.00 | 0.13 | 0.09 | 44 | 1026.2 |
| 20260901192050 | 78 | 189 | 4.0 | 11.0 | 0.00 | 0.13 | 0.09 | 46 | 1026.3 |
| 20260901191551 | 79 | 178 | 5.0 | 10.0 | 0.00 | 0.13 | 0.09 | 45 | 1026.4 |
| 20260901191317 | 79 | 189 | 3.0 | 10.0 | 0.00 | 0.13 | 0.09 | 47 | 1026.4 |
| 20260901190551 | 79 | 190 | 4.0 | 11.0 | 0.00 | 0.13 | 0.09 | 48 | 1026.4 |
| 20260901190051 | 78 | 241 | 5.0 | 11.0 | 0.00 | 0.13 | 0.09 | 52 | 1026.7 |
| 20260901185551 | 77 | 200 | 3.0 | 7.0 | 0.00 | 0.13 | 0.09 | 52 | 1026.7 |
| 20260901185050 | 77 | 176 | 2.0 | 10.0 | 0.00 | 0.13 | 0.09 | 55 | 1026.8 |
| 20260901184551 | 76 | 240 | 4.0 | 10.0 | 0.00 | 0.13 | 0.09 | 57 | 1026.9 |
| 20260901184051 | 75 | 180 | 3.0 | 9.0 | 0.00 | 0.13 | 0.09 | 57 | 1026.9 |
| 20260901183550 | 74 | 173 | 4.0 | 7.0 | 0.00 | 0.13 | 0.09 | 54 | 1027.2 |
| 20260901183051 | 74 | 140 | 4.0 | 7.0 | 0.00 | 0.13 | 0.09 | 58 | 1027.0 |
| 20260901182551 | 73 | 93 | 1.0 | 6.0 | 0.00 | 0.13 | 0.09 | 62 | 1027.0 |
| 20260901182051 | 73 | 92 | 1.0 | 6.0 | 0.00 | 0.13 | 0.09 | 61 | 1027.2 |
| 20260901181551 | 72 | 71 | 1.0 | 4.0 | 0.00 | 0.13 | 0.09 | 63 | 1027.3 |
| 20260901181050 | 71 | 71 | 1.0 | 4.0 | 0.00 | 0.13 | 0.09 | 66 | 1027.2 |
| 20260901180812 | 71 | 71 | 2.0 | 4.0 | 0.00 | 0.13 | 0.09 | 66 | 1027.3 |
| 20260901180052 | 70 | 71 | 1.0 | 3.0 | 0.00 | 0.13 | 0.09 | 68 | 1027.4 |
| 20260901175813 | 70 | 71 | 1.0 | 3.0 | 0.00 | 0.13 | 0.09 | 68 | 1027.5 |
| 20260901175315 | 70 | 71 | 0.0 | 3.0 | 0.00 | 0.13 | 0.09 | 68 | 1027.5 |
| 20260901174551 | 70 | 71 | 0.0 | 3.0 | 0.00 | 0.13 | 0.09 | 70 | 1027.6 |
| 20260901174052 | 70 | 71 | 0.0 | 3.0 | 0.00 | 0.13 | 0.09 | 70 | 1027.5 |
| 20260901173551 | 70 | 71 | 0.0 | 3.0 | 0.00 | 0.13 | 0.09 | 72 | 1027.6 |
| 20260901173050 | 70 | 71 | 0.0 | 3.0 | 0.00 | 0.13 | 0.09 | 71 | 1027.6 |
| 20260901172551 | 69 | 71 | 0.0 | 4.0 | 0.00 | 0.13 | 0.09 | 72 | 1027.6 |
| 20260901172051 | 69 | 71 | 0.0 | 4.0 | 0.00 | 0.13 | 0.09 | 73 | 1027.8 |
| 20260901171552 | 69 | 71 | 1.0 | 3.0 | 0.00 | 0.13 | 0.09 | 72 | 1027.8 |
| 20260901171051 | 69 | 71 | 0.0 | 3.0 | 0.00 | 0.13 | 0.09 | 74 | 1027.8 |
| 20260901170551 | 69 | 71 | 1.0 | 3.0 | 0.00 | 0.13 | 0.09 | 73 | 1027.8 |
| 20260901170316 | 69 | 71 | 0.0 | 5.0 | 0.00 | 0.13 | 0.09 | 73 | 1027.8 |
| 20260901165551 | 70 | 71 | 2.0 | 5.0 | 0.00 | 0.13 | 0.09 | 72 | 1027.8 |
| 20260901165052 | 70 | 66 | 0.0 | 4.0 | 0.00 | 0.13 | 0.09 | 72 | 1027.6 |
| 20260901164551 | 70 | 66 | 1.0 | 6.0 | 0.00 | 0.13 | 0.09 | 72 | 1027.5 |
| 20260901164051 | 70 | 66 | 1.0 | 6.0 | 0.00 | 0.13 | 0.09 | 73 | 1027.6 |
| 20260901163811 | 69 | 69 | 3.0 | 6.0 | 0.00 | 0.13 | 0.09 | 79 | 1027.8 |
| 20260901163314 | 69 | 41 | 2.0 | 6.0 | 0.00 | 0.13 | 0.09 | 79 | 1027.5 |
| 20260901162810 | 68 | 37 | 2.0 | 5.0 | 0.00 | 0.13 | 0.09 | 79 | 1027.5 |
| 20260901162309 | 67 | 34 | 1.0 | 5.0 | 0.00 | 0.13 | 0.09 | 84 | 1027.5 |
| 20260901161551 | 66 | 37 | 1.0 | 6.0 | 0.00 | 0.13 | 0.09 | 84 | 1027.5 |
| 20260901161051 | 65 | 35 | 2.0 | 6.0 | 0.00 | 0.13 | 0.09 | 86 | 1027.4 |
| 20260901160551 | 64 | 28 | 0.0 | 5.0 | 0.00 | 0.13 | 0.09 | 87 | 1027.4 |
| 20260901160310 | 63 | 28 | 4.0 | 5.0 | 0.00 | 0.13 | 0.09 | 88 | 1027.3 |
| 20260901160039 | 63 | 27 | 1.0 | 6.0 | 0.00 | 0.13 | 0.09 | 88 | 1027.3 |
| 20260901155050 | 63 | 27 | 2.0 | 6.0 | 0.00 | 0.13 | 0.09 | 90 | 1027.2 |
| 20260901154552 | 62 | 20 | 3.0 | 6.0 | 0.00 | 0.13 | 0.09 | 91 | 1027.2 |
| 20260901154050 | 62 | 17 | 1.0 | 6.0 | 0.00 | 0.13 | 0.09 | 93 | 1027.3 |
| 20260901153815 | 62 | 23 | 2.0 | 5.0 | 0.00 | 0.13 | 0.09 | 95 | 1027.3 |
| 20260901153052 | 61 | 23 | 1.0 | 5.0 | 0.00 | 0.13 | 0.09 | 96 | 1027.2 |
| 20260901152551 | 61 | 23 | 0.0 | 5.0 | 0.00 | 0.13 | 0.09 | 95 | 1027.3 |
| 20260901152050 | 60 | 23 | 1.0 | 5.0 | 0.00 | 0.13 | 0.09 | 96 | 1027.3 |
| 20260901151551 | 60 | 23 | 1.0 | 5.0 | 0.00 | 0.13 | 0.09 | 96 | 1027.3 |
| 20260901151051 | 60 | 23 | 0.0 | 5.0 | 0.00 | 0.13 | 0.09 | 96 | 1027.3 |
| 20260901150808 | 60 | 23 | 1.0 | 4.0 | 0.00 | 0.13 | 0.09 | 96 | 1027.3 |
| 20260901150051 | 60 | 24 | 1.0 | 5.0 | 0.00 | 0.13 | 0.09 | 96 | 1027.2 |
| 20260901145551 | 60 | 24 | 2.0 | 5.0 | 0.00 | 0.13 | 0.09 | 97 | 1027.2 |
| 20260901145309 | 60 | 27 | 0.0 | 5.0 | 0.00 | 0.13 | 0.09 | 97 | 1027.3 |
| 20260901144551 | 60 | 28 | 1.0 | 5.0 | 0.00 | 0.13 | 0.09 | 97 | 1027.2 |
| 20260901144051 | 60 | 30 | 2.0 | 5.0 | 0.00 | 0.13 | 0.09 | 98 | 1027.2 |
| 20260901143551 | 60 | 28 | 2.0 | 5.0 | 0.00 | 0.13 | 0.09 | 98 | 1027.3 |
| 20260901143050 | 59 | 27 | 2.0 | 5.0 | 0.00 | 0.13 | 0.09 | 97 | 1027.2 |
| 20260901142551 | 59 | 27 | 2.0 | 5.0 | 0.00 | 0.13 | 0.09 | 98 | 1027.3 |
| 20260901142051 | 59 | 25 | 2.0 | 3.0 | 0.00 | 0.13 | 0.09 | 97 | 1027.3 |
| 20260901141551 | 58 | 25 | 0.0 | 1.0 | 0.00 | 0.13 | 0.09 | 97 | 1027.3 |
| 20260901141050 | 58 | 25 | 0.0 | 2.0 | 0.00 | 0.13 | 0.09 | 97 | 1027.2 |
| 20260901140550 | 58 | 25 | 0.0 | 2.0 | 0.00 | 0.13 | 0.09 | 97 | 1027.2 |
| 20260901140050 | 58 | 25 | 0.0 | 4.0 | 0.00 | 0.13 | 0.09 | 97 | 1027.2 |
| 20260901135551 | 58 | 25 | 0.0 | 4.0 | 0.00 | 0.13 | 0.09 | 97 | 1027.2 |
| 20260901135532 | 58 | 27 | 0.0 | 4.0 | 0.00 | 0.13 | 0.09 | 97 | 1027.0 |
| 20260901134550 | 58 | 27 | 1.0 | 4.0 | 0.00 | 0.13 | 0.09 | 97 | 1026.9 |
| 20260901134050 | 58 | 27 | 1.0 | 4.0 | 0.00 | 0.13 | 0.09 | 96 | 1026.8 |
| 20260901133550 | 58 | 27 | 1.0 | 4.0 | 0.00 | 0.13 | 0.09 | 96 | 1026.9 |
| 20260901133051 | 58 | 27 | 0.0 | 5.0 | 0.00 | 0.13 | 0.09 | 96 | 1026.9 |
| 20260901132552 | 58 | 27 | 1.0 | 5.0 | 0.00 | 0.13 | 0.09 | 96 | 1027.0 |
| 20260901132308 | 58 | 27 | 2.0 | 6.0 | 0.00 | 0.13 | 0.09 | 96 | 1026.8 |
| 20260901131550 | 58 | 25 | 2.0 | 6.0 | 0.00 | 0.13 | 0.09 | 96 | 1026.9 |
| 20260901131051 | 58 | 13 | 3.0 | 6.0 | 0.00 | 0.13 | 0.09 | 97 | 1026.9 |
| 20260901130811 | 58 | 279 | 2.0 | 4.0 | 0.00 | 0.13 | 0.09 | 97 | 1026.8 |
| 20260901130315 | 58 | 276 | 2.0 | 4.0 | 0.00 | 0.13 | 0.09 | 97 | 1026.6 |
| 20260901125550 | 58 | 274 | 1.0 | 4.0 | 0.01 | 0.13 | 0.09 | 97 | 1026.6 |
| 20260901125311 | 58 | 274 | 2.0 | 4.0 | 0.01 | 0.13 | 0.09 | 97 | 1026.6 |
| 20260901124550 | 58 | 274 | 0.0 | 2.0 | 0.01 | 0.13 | 0.09 | 97 | 1026.7 |
| 20260901124051 | 58 | 274 | 0.0 | 3.0 | 0.01 | 0.13 | 0.09 | 97 | 1026.6 |
| 20260901123550 | 58 | 274 | 0.0 | 3.0 | 0.01 | 0.13 | 0.09 | 97 | 1026.7 |
| 20260901123050 | 58 | 274 | 0.0 | 3.0 | 0.01 | 0.13 | 0.09 | 97 | 1026.6 |
| 20260901122551 | 58 | 274 | 1.0 | 4.0 | 0.01 | 0.13 | 0.09 | 96 | 1026.3 |
| 20260901122311 | 58 | 272 | 2.0 | 5.0 | 0.01 | 0.13 | 0.09 | 97 | 1026.3 |
| 20260901121550 | 58 | 265 | 1.0 | 5.0 | 0.01 | 0.13 | 0.09 | 96 | 1026.4 |
| 20260901121051 | 58 | 179 | 0.0 | 3.0 | 0.01 | 0.13 | 0.09 | 96 | 1026.4 |
| 20260901120551 | 58 | 179 | 1.0 | 3.0 | 0.01 | 0.13 | 0.09 | 96 | 1026.6 |
| 20260901120051 | 58 | 176 | 0.0 | 2.0 | 0.01 | 0.13 | 0.09 | 96 | 1026.6 |
| 20260901115550 | 58 | 176 | 0.0 | 2.0 | 0.00 | 0.12 | 0.08 | 96 | 1026.7 |
| 20260901115050 | 58 | 176 | 0.0 | 0.0 | 0.00 | 0.12 | 0.08 | 96 | 1026.7 |
| 20260901114550 | 58 | 176 | 0.0 | 0.0 | 0.00 | 0.12 | 0.08 | 96 | 1026.9 |
| 20260901114050 | 58 | 176 | 0.0 | 0.0 | 0.00 | 0.13 | 0.08 | 96 | 1026.9 |
| 20260901113550 | 58 | 176 | 0.0 | 0.0 | 0.00 | 0.13 | 0.08 | 96 | 1026.9 |
| 20260901113051 | 58 | 176 | 0.0 | 0.0 | 0.00 | 0.13 | 0.08 | 96 | 1027.0 |
| 20260901112550 | 58 | 176 | 0.0 | 0.0 | 0.00 | 0.13 | 0.08 | 96 | 1026.9 |
| 20260901112318 | 58 | 176 | 0.0 | 0.0 | 0.00 | 0.15 | 0.08 | 96 | 1026.9 |
| 20260901111817 | 58 | 176 | 0.0 | 0.0 | 0.00 | 0.18 | 0.08 | 96 | 1027.0 |
| 20260901111050 | 58 | 176 | 0.0 | 0.0 | 0.00 | 0.18 | 0.08 | 96 | 1027.0 |
| 20260901110550 | 58 | 176 | 0.0 | 0.0 | 0.00 | 0.18 | 0.08 | 96 | 1027.0 |
| 20260901110050 | 58 | 176 | 0.0 | 0.0 | 0.00 | 0.18 | 0.08 | 96 | 1026.9 |
| 20260901105808 | 58 | 176 | 0.0 | 2.0 | 0.01 | 0.18 | 0.08 | 96 | 1026.9 |
| 20260901105050 | 58 | 176 | 0.0 | 2.0 | 0.02 | 0.18 | 0.08 | 95 | 1026.9 |
| 20260901104551 | 58 | 176 | 0.0 | 0.0 | 0.04 | 0.18 | 0.08 | 95 | 1026.9 |
| 20260901104051 | 58 | 176 | 0.0 | 0.0 | 0.05 | 0.18 | 0.08 | 95 | 1026.9 |
| 20260901103550 | 59 | 176 | 0.0 | 2.0 | 0.05 | 0.18 | 0.08 | 95 | 1026.9 |
| 20260901103051 | 59 | 176 | 0.0 | 4.0 | 0.06 | 0.18 | 0.08 | 95 | 1026.8 |
| 20260901102550 | 60 | 176 | 1.0 | 4.0 | 0.07 | 0.18 | 0.08 | 95 | 1026.8 |
| 20260901102050 | 60 | 231 | 0.0 | 3.0 | 0.07 | 0.18 | 0.08 | 96 | 1026.6 |
| 20260901101811 | 60 | 231 | 0.0 | 1.0 | 0.07 | 0.18 | 0.08 | 96 | 1026.3 |
| 20260901101050 | 60 | 231 | 0.0 | 1.0 | 0.07 | 0.18 | 0.08 | 96 | 1026.6 |
| 20260901100551 | 60 | 231 | 0.0 | 1.0 | 0.07 | 0.18 | 0.08 | 96 | 1026.4 |
| 20260901100049 | 60 | 231 | 0.0 | 1.0 | 0.07 | 0.18 | 0.08 | 96 | 1026.7 |
| 20260901095550 | 60 | 231 | 0.0 | 0.0 | 0.06 | 0.11 | 0.07 | 96 | 1026.9 |
| 20260901095310 | 60 | 231 | 0.0 | 0.0 | 0.05 | 0.11 | 0.06 | 96 | 1026.9 |
| 20260901094550 | 60 | 231 | 0.0 | 0.0 | 0.03 | 0.11 | 0.04 | 96 | 1026.9 |
| 20260901094050 | 60 | 231 | 0.0 | 0.0 | 0.02 | 0.11 | 0.03 | 96 | 1027.0 |
| 20260901093808 | 60 | 231 | 0.0 | 0.0 | 0.02 | 0.11 | 0.03 | 96 | 1027.3 |
| 20260901093315 | 60 | 231 | 0.0 | 0.0 | 0.01 | 0.11 | 0.02 | 95 | 1026.9 |
| 20260901092551 | 60 | 231 | 0.0 | 4.0 | 0.00 | 0.11 | 0.01 | 95 | 1027.2 |
| 20260901092050 | 60 | 231 | 0.0 | 4.0 | 0.00 | 0.11 | 0.01 | 95 | 1027.2 |
| 20260901091550 | 60 | 233 | 1.0 | 4.0 | 0.00 | 0.11 | 0.01 | 95 | 1027.3 |
| 20260901091050 | 60 | 233 | 1.0 | 4.0 | 0.00 | 0.11 | 0.01 | 96 | 1027.2 |
| 20260901090551 | 60 | 235 | 0.0 | 4.0 | 0.00 | 0.11 | 0.01 | 96 | 1027.2 |
| 20260901090050 | 60 | 237 | 1.0 | 4.0 | 0.00 | 0.11 | 0.01 | 96 | 1027.2 |
| 20260901085550 | 61 | 237 | 0.0 | 5.0 | 0.00 | 0.11 | 0.01 | 96 | 1027.2 |
| 20260901085528 | 61 | 241 | 2.0 | 5.0 | 0.00 | 0.11 | 0.01 | 96 | 1027.2 |
| 20260901084550 | 60 | 266 | 2.0 | 4.0 | 0.00 | 0.11 | 0.01 | 96 | 1027.2 |
| 20260901084306 | 60 | 283 | 2.0 | 4.0 | 0.01 | 0.11 | 0.01 | 96 | 1026.9 |
| 20260901083550 | 60 | 305 | 0.0 | 3.0 | 0.01 | 0.11 | 0.01 | 96 | 1026.6 |
| 20260901083050 | 60 | 306 | 1.0 | 3.0 | 0.01 | 0.11 | 0.01 | 95 | 1026.6 |
| 20260901082549 | 60 | 313 | 0.0 | 0.0 | 0.01 | 0.11 | 0.01 | 95 | 1026.3 |
| 20260901082051 | 60 | 313 | 0.0 | 0.0 | 0.01 | 0.11 | 0.01 | 95 | 1026.3 |
| 20260901081551 | 60 | 313 | 0.0 | 0.0 | 0.01 | 0.11 | 0.01 | 95 | 1026.3 |
| 20260901081050 | 60 | 313 | 0.0 | 0.0 | 0.01 | 0.11 | 0.01 | 95 | 1026.4 |
| 20260901080550 | 60 | 313 | 0.0 | 0.0 | 0.01 | 0.11 | 0.01 | 95 | 1026.4 |
| 20260901080050 | 60 | 313 | 0.0 | 3.0 | 0.01 | 0.11 | 0.01 | 95 | 1026.3 |
| 20260901075550 | 61 | 313 | 0.0 | 3.0 | 0.01 | 0.10 | 0.01 | 95 | 1026.2 |
| 20260901075314 | 61 | 313 | 1.0 | 2.0 | 0.01 | 0.10 | 0.01 | 95 | 1026.1 |
| 20260901074550 | 61 | 313 | 0.0 | 0.0 | 0.01 | 0.10 | 0.01 | 95 | 1026.1 |
| 20260901074050 | 61 | 313 | 0.0 | 0.0 | 0.00 | 0.10 | 0.00 | 95 | 1026.2 |
| 20260901073551 | 61 | 313 | 0.0 | 0.0 | 0.00 | 0.10 | 0.00 | 95 | 1026.2 |
| 20260901073050 | 61 | 313 | 0.0 | 0.0 | 0.00 | 0.10 | 0.00 | 95 | 1026.4 |
| 20260901072550 | 61 | 313 | 0.0 | 0.0 | 0.00 | 0.10 | 0.00 | 95 | 1026.4 |
| 20260901072050 | 61 | 313 | 0.0 | 0.0 | 0.00 | 0.10 | 0.00 | 95 | 1026.6 |
| 20260901071550 | 61 | 313 | 0.0 | 1.0 | 0.00 | 0.10 | 0.00 | 95 | 1026.4 |
| 20260901071050 | 61 | 313 | 0.0 | 1.0 | 0.00 | 0.10 | 0.00 | 95 | 1026.3 |
| 20260901070550 | 61 | 313 | 0.0 | 0.0 | 0.00 | 0.10 | 0.00 | 95 | 1026.3 |
| 20260901070050 | 61 | 313 | 0.0 | 0.0 | 0.00 | 0.10 | 0.00 | 94 | 1026.6 |
| 20260901065551 | 61 | 313 | 0.0 | 0.0 | 0.00 | 0.10 | 0.00 | 94 | 1026.4 |
| 20260901065050 | 61 | 313 | 0.0 | 0.0 | 0.00 | 0.10 | 0.00 | 94 | 1026.3 |
| 20260901064550 | 61 | 313 | 0.0 | 0.0 | 0.00 | 0.10 | 0.00 | 94 | 1026.4 |
| 20260901064312 | 61 | 313 | 0.0 | 1.0 | 0.00 | 0.10 | 0.00 | 94 | 1026.3 |
| 20260901063550 | 61 | 313 | 0.0 | 2.0 | 0.00 | 0.10 | 0.00 | 94 | 1026.3 |
| 20260901063050 | 61 | 313 | 0.0 | 2.0 | 0.00 | 0.10 | 0.00 | 94 | 1026.3 |
| 20260901062550 | 61 | 313 | 1.0 | 3.0 | 0.00 | 0.10 | 0.00 | 94 | 1026.2 |
| 20260901062049 | 61 | 313 | 0.0 | 3.0 | 0.00 | 0.10 | 0.00 | 94 | 1026.3 |
| 20260901061550 | 61 | 312 | 1.0 | 3.0 | 0.00 | 0.10 | 0.00 | 94 | 1026.2 |
| 20260901061049 | 61 | 312 | 0.0 | 4.0 | 0.00 | 0.10 | 0.00 | 94 | 1026.1 |
| 20260901060550 | 61 | 312 | 0.0 | 4.0 | 0.00 | 0.10 | 0.00 | 94 | 1026.2 |
| 20260901060447 | 61 | 306 | 0.0 | 4.0 | 0.00 | 0.10 | 0.00 | 94 | 1026.2 |
| 20260901055551 | 60 | 305 | 2.0 | 4.0 | 0.00 | 0.10 | 0.10 | 93 | 1026.2 |
| 20260901055049 | 60 | 290 | 0.0 | 0.0 | 0.00 | 0.10 | 0.10 | 93 | 1026.2 |
| 20260901054550 | 61 | 289 | 0.0 | 0.0 | 0.01 | 0.10 | 0.10 | 93 | 1026.2 |
| 20260901054050 | 61 | 289 | 0.0 | 0.0 | 0.01 | 0.10 | 0.10 | 92 | 1026.3 |
| 20260901053549 | 61 | 289 | 0.0 | 0.0 | 0.01 | 0.10 | 0.10 | 92 | 1026.2 |
| 20260901053050 | 61 | 289 | 0.0 | 0.0 | 0.01 | 0.10 | 0.10 | 92 | 1026.1 |
| 20260901052550 | 61 | 289 | 0.0 | 1.0 | 0.01 | 0.10 | 0.10 | 92 | 1026.1 |
| 20260901052050 | 61 | 289 | 0.0 | 1.0 | 0.01 | 0.10 | 0.10 | 92 | 1025.9 |
| 20260901051550 | 61 | 289 | 0.0 | 3.0 | 0.01 | 0.10 | 0.10 | 92 | 1026.1 |
| 20260901051049 | 62 | 289 | 0.0 | 3.0 | 0.01 | 0.10 | 0.10 | 92 | 1026.2 |
| 20260901050813 | 62 | 289 | 0.0 | 2.0 | 0.01 | 0.10 | 0.10 | 92 | 1026.4 |
| 20260901050310 | 62 | 289 | 0.0 | 3.0 | 0.01 | 0.10 | 0.10 | 92 | 1026.4 |
| 20260901045550 | 62 | 289 | 1.0 | 4.0 | 0.01 | 0.09 | 0.10 | 92 | 1026.3 |
| 20260901045050 | 62 | 289 | 0.0 | 4.0 | 0.01 | 0.09 | 0.10 | 92 | 1026.6 |
| 20260901044550 | 62 | 289 | 0.0 | 1.0 | 0.01 | 0.09 | 0.09 | 92 | 1026.9 |
| 20260901044050 | 62 | 289 | 0.0 | 0.0 | 0.01 | 0.09 | 0.09 | 91 | 1027.3 |
| 20260901043550 | 62 | 289 | 0.0 | 3.0 | 0.01 | 0.09 | 0.09 | 91 | 1026.9 |
| 20260901043050 | 62 | 289 | 0.0 | 3.0 | 0.01 | 0.09 | 0.09 | 91 | 1027.0 |
| 20260901042550 | 62 | 289 | 0.0 | 2.0 | 0.01 | 0.09 | 0.09 | 90 | 1027.0 |
| 20260901042050 | 62 | 289 | 0.0 | 5.0 | 0.01 | 0.09 | 0.09 | 90 | 1026.9 |
| 20260901041550 | 62 | 289 | 1.0 | 7.0 | 0.01 | 0.09 | 0.09 | 89 | 1026.9 |
| 20260901041050 | 62 | 286 | 4.0 | 9.0 | 0.01 | 0.09 | 0.09 | 89 | 1026.8 |
| 20260901040550 | 62 | 283 | 5.0 | 9.0 | 0.01 | 0.09 | 0.09 | 89 | 1026.9 |
| 20260901040050 | 63 | 8 | 0.0 | 3.0 | 0.01 | 0.09 | 0.09 | 89 | 1026.8 |
| 20260901035550 | 63 | 8 | 1.0 | 3.0 | 0.01 | 0.08 | 0.09 | 89 | 1026.8 |
| 20260901035050 | 63 | 8 | 0.0 | 0.0 | 0.01 | 0.08 | 0.09 | 88 | 1026.9 |
| 20260901034550 | 63 | 8 | 0.0 | 0.0 | 0.00 | 0.08 | 0.08 | 87 | 1026.9 |
| 20260901034050 | 62 | 8 | 0.0 | 0.0 | 0.00 | 0.08 | 0.08 | 85 | 1026.9 |
| 20260901033550 | 62 | 8 | 0.0 | 0.0 | 0.00 | 0.08 | 0.08 | 85 | 1027.0 |
| 20260901033050 | 62 | 8 | 0.0 | 0.0 | 0.00 | 0.08 | 0.08 | 86 | 1027.2 |
| 20260901032550 | 62 | 8 | 0.0 | 0.0 | 0.00 | 0.08 | 0.08 | 86 | 1027.2 |
| 20260901032314 | 62 | 8 | 0.0 | 0.0 | 0.00 | 0.08 | 0.08 | 86 | 1027.0 |
| 20260901031549 | 62 | 8 | 0.0 | 0.0 | 0.00 | 0.08 | 0.08 | 86 | 1026.8 |
| 20260901031314 | 62 | 8 | 0.0 | 0.0 | 0.00 | 0.08 | 0.08 | 85 | 1026.4 |
| 20260901030549 | 62 | 8 | 0.0 | 1.0 | 0.00 | 0.08 | 0.08 | 85 | 1026.7 |
| 20260901030050 | 62 | 8 | 0.0 | 1.0 | 0.00 | 0.08 | 0.08 | 85 | 1026.4 |
| 20260901025549 | 62 | 8 | 0.0 | 3.0 | 0.00 | 0.08 | 0.08 | 85 | 1026.2 |
| 20260901025050 | 62 | 8 | 0.0 | 3.0 | 0.00 | 0.08 | 0.08 | 84 | 1026.2 |
| 20260901024550 | 62 | 8 | 0.0 | 3.0 | 0.00 | 0.08 | 0.08 | 85 | 1026.1 |
| 20260901024049 | 62 | 8 | 0.0 | 4.0 | 0.00 | 0.08 | 0.08 | 84 | 1026.1 |
| 20260901023550 | 62 | 8 | 2.0 | 6.0 | 0.00 | 0.08 | 0.08 | 85 | 1025.8 |
| 20260901023049 | 62 | 8 | 2.0 | 6.0 | 0.00 | 0.08 | 0.08 | 84 | 1025.7 |
| 20260901022549 | 62 | 10 | 2.0 | 5.0 | 0.00 | 0.08 | 0.08 | 84 | 1026.1 |
| 20260901022049 | 62 | 11 | 2.0 | 4.0 | 0.00 | 0.08 | 0.08 | 84 | 1026.1 |
| 20260901021549 | 63 | 11 | 0.0 | 3.0 | 0.00 | 0.08 | 0.08 | 84 | 1026.2 |
| 20260901021050 | 63 | 11 | 0.0 | 3.0 | 0.00 | 0.08 | 0.08 | 84 | 1026.2 |
| 20260901020550 | 63 | 11 | 1.0 | 4.0 | 0.00 | 0.08 | 0.08 | 85 | 1025.9 |
| 20260901020050 | 63 | 11 | 2.0 | 7.0 | 0.00 | 0.08 | 0.08 | 84 | 1026.2 |
| 20260901015549 | 63 | 11 | 3.0 | 7.0 | 0.01 | 0.08 | 0.08 | 84 | 1026.1 |
| 20260901015050 | 63 | 16 | 3.0 | 6.0 | 0.02 | 0.08 | 0.08 | 84 | 1026.1 |
| 20260901014549 | 63 | 16 | 4.0 | 7.0 | 0.02 | 0.08 | 0.08 | 84 | 1025.9 |
| 20260901014310 | 63 | 16 | 3.0 | 7.0 | 0.02 | 0.08 | 0.08 | 84 | 1025.9 |
| 20260901013549 | 63 | 24 | 3.0 | 6.0 | 0.02 | 0.08 | 0.08 | 83 | 1025.9 |
| 20260901013049 | 64 | 25 | 3.0 | 6.0 | 0.02 | 0.08 | 0.08 | 83 | 1025.9 |
| 20260901012549 | 64 | 32 | 2.0 | 6.0 | 0.02 | 0.08 | 0.08 | 83 | 1026.1 |
| 20260901012050 | 64 | 38 | 4.0 | 9.0 | 0.02 | 0.08 | 0.08 | 82 | 1025.9 |
| 20260901011549 | 64 | 39 | 4.0 | 9.0 | 0.02 | 0.08 | 0.08 | 81 | 1025.9 |
| 20260901011050 | 65 | 62 | 3.0 | 11.0 | 0.02 | 0.08 | 0.08 | 80 | 1026.1 |
| 20260901010549 | 66 | 58 | 5.0 | 11.0 | 0.02 | 0.08 | 0.08 | 78 | 1025.8 |
| 20260901010528 | 67 | 66 | 6.0 | 11.0 | 0.02 | 0.07 | 0.07 | 75 | 1026.1 |